sat.trackr.live / text

‹ back to catalog

YAOGAN-30 06C

NORAD 44451 · 2019-045C

PAYLOAD ACTIVE UNKNOWN

§ Identity

Operator
Country
PRC
Launch date
2019-07-26
Launch site
XICLF
Launch vehicle
Mass (kg)
RCS (m²)

External: N2YO · Heavens-Above · Gunter

§ Orbital elements

Epoch: 2026-09-09T03:57:38.325888Z

Period
95.81 min
Inclination
34.9929°
Eccentricity
0.0000849
Mean motion
15.03020654 rev/d
Perigee alt
557.0 km
Apogee alt
558.2 km
Semi-major
6,935.7 km
B*
1.4819e-4
RAAN
177.5257°
Arg perigee
288.4362°
Mean anomaly
71.6254°
Rev number
38,919

§ Raw data

YAOGAN-30 06C1 44451U 19045C   26252.16502692  .00002007  00000+0  14819-3 0  99992 44451  34.9929 177.5257 0000849 288.4362  71.6254 15.03020654389195

JSON: /api/v1/satellites/44451 · /tle

For live sub-satellite position, see the globe view (requires WebGL).

§ Visibility from observer

Set your observer location to see the next 7 days of passes ≥ 10°. The values pass through the URL so the page stays shareable.

No JS? Fill the form by hand. The geolocation button needs JavaScript.